Hourly Weather Russkaya Slobodka

Today, 16 April, Friday

Time Temperature Precipitation Wind Pressure Humidity
00:00 +8°C° 0 mm 3 mps 761 mmHg 87%
01:00 +8°C° 0 mm 3 mps 761 mmHg 88%
02:00 +7°C° 0 mm 3 mps 761 mmHg 89%
03:00 +7°C° 0 mm 3 mps 761 mmHg 90%
04:00 +7°C° 0 mm 2 mps 761 mmHg 90%
05:00 +7°C° 0 mm 2 mps 761 mmHg 90%
06:00 +7°C° 0 mm 2 mps 762 mmHg 90%
07:00 +8°C° 0 mm 2 mps 762 mmHg 84%
08:00 +9°C° 0 mm 2 mps 762 mmHg 78%
09:00 +11°C° 0 mm 1 mps 762 mmHg 72%
10:00 +12°C° 0 mm 2 mps 762 mmHg 70%
11:00 +12°C° 0 mm 2 mps 762 mmHg 67%
12:00 +12°C° 0 mm 3 mps 762 mmHg 64%
13:00 +12°C° 0.1 mm 3 mps 762 mmHg 68%
14:00 +11°C° 0.1 mm 3 mps 763 mmHg 72%
15:00 +11°C° 0.1 mm 3 mps 763 mmHg 76%
16:00 +12°C° 0 mm 2 mps 762 mmHg 77%
17:00 +12°C° 0 mm 2 mps 762 mmHg 77%
18:00 +12°C° 0 mm 2 mps 762 mmHg 77%
19:00 +10°C° 0 mm 2 mps 762 mmHg 81%
20:00 +10°C° 0 mm 1 mps 763 mmHg 84%
21:00 +10°C° 0 mm 1 mps 763 mmHg 87%
22:00 +9°C° 0.3 mm 2 mps 763 mmHg 89%
23:00 +9°C° 0.3 mm 2 mps 763 mmHg 91%

Tomorrow, 17 April, Saturday

Time Temperature Precipitation Wind Pressure Humidity
00:00 +9°C° 0.3 mm 2 mps 763 mmHg 93%
01:00 +8°C° 0.1 mm 3 mps 763 mmHg 93%
02:00 +8°C° 0.1 mm 3 mps 763 mmHg 94%
03:00 +8°C° 0.1 mm 3 mps 763 mmHg 95%
04:00 +7°C° 0 mm 3 mps 763 mmHg 94%
05:00 +7°C° 0 mm 3 mps 763 mmHg 93%
06:00 +5°C° 0 mm 3 mps 763 mmHg 92%
07:00 +7°C° 0 mm 3 mps 764 mmHg 83%
08:00 +8°C° 0 mm 3 mps 764 mmHg 74%
09:00 +10°C° 0 mm 3 mps 764 mmHg 65%
10:00 +10°C° 0 mm 4 mps 764 mmHg 61%
11:00 +11°C° 0 mm 4 mps 764 mmHg 57%
12:00 +12°C° 0 mm 4 mps 765 mmHg 53%
13:00 +12°C° 0 mm 4 mps 765 mmHg 54%
14:00 +12°C° 0 mm 4 mps 765 mmHg 56%
15:00 +12°C° 0 mm 5 mps 765 mmHg 57%
16:00 +12°C° 0 mm 4 mps 765 mmHg 59%
17:00 +11°C° 0 mm 4 mps 765 mmHg 62%
18:00 +11°C° 0 mm 3 mps 765 mmHg 65%
19:00 +10°C° 0 mm 3 mps 765 mmHg 68%
20:00 +9°C° 0 mm 2 mps 765 mmHg 72%
21:00 +8°C° 0 mm 2 mps 765 mmHg 76%
22:00 +8°C° 0 mm 2 mps 765 mmHg 76%
23:00 +9°C° 0 mm 1 mps 765 mmHg 76%

Day after tomorrow, 18 April, Sunday

Time Temperature Precipitation Wind Pressure Humidity
00:00 +9°C° 0 mm 1 mps 765 mmHg 77%
01:00 +8°C° 0 mm 1 mps 764 mmHg 76%
02:00 +8°C° 0 mm 1 mps 764 mmHg 76%
03:00 +7°C° 0 mm 2 mps 764 mmHg 76%
04:00 +7°C° 0 mm 2 mps 764 mmHg 77%
05:00 +7°C° 0 mm 3 mps 764 mmHg 78%
06:00 +7°C° 0 mm 3 mps 763 mmHg 78%
07:00 +7°C° 0 mm 4 mps 763 mmHg 73%
08:00 +10°C° 0 mm 4 mps 763 mmHg 68%
09:00 +11°C° 0 mm 4 mps 763 mmHg 63%
10:00 +12°C° 0 mm 4 mps 763 mmHg 60%
11:00 +12°C° 0 mm 4 mps 763 mmHg 57%
12:00 +13°C° 0 mm 4 mps 763 mmHg 54%
13:00 +13°C° 0 mm 3 mps 762 mmHg 54%
14:00 +14°C° 0 mm 3 mps 762 mmHg 55%
15:00 +14°C° 0 mm 3 mps 762 mmHg 55%
16:00 +13°C° 0 mm 3 mps 762 mmHg 62%
17:00 +12°C° 0 mm 3 mps 762 mmHg 68%
18:00 +12°C° 0 mm 2 mps 762 mmHg 75%
19:00 +12°C° 0.1 mm 2 mps 762 mmHg 77%
20:00 +10°C° 0.1 mm 2 mps 762 mmHg 79%
21:00 +10°C° 0.1 mm 2 mps 762 mmHg 81%
22:00 +10°C° 0 mm 2 mps 761 mmHg 81%
23:00 +10°C° 0 mm 2 mps 761 mmHg 82%

19 April, Monday

Time Temperature Precipitation Wind Pressure Humidity
00:00 +10°C° 0 mm 2 mps 761 mmHg 83%
01:00 +10°C° 0 mm 2 mps 761 mmHg 84%
02:00 +10°C° 0 mm 2 mps 761 mmHg 85%
03:00 +11°C° 0 mm 1 mps 761 mmHg 86%
04:00 +10°C° 0 mm 2 mps 760 mmHg 87%
05:00 +10°C° 0 mm 2 mps 760 mmHg 89%
06:00 +10°C° 0 mm 2 mps 760 mmHg 91%
07:00 +10°C° 0 mm 2 mps 760 mmHg 91%
08:00 +10°C° 0 mm 2 mps 760 mmHg 92%
09:00 +12°C° 0 mm 2 mps 760 mmHg 92%
10:00 +12°C° 0 mm 2 mps 759 mmHg 91%
11:00 +11°C° 0 mm 3 mps 759 mmHg 90%
12:00 +12°C° 0 mm 3 mps 759 mmHg 89%
13:00 +12°C° 0.1 mm 3 mps 759 mmHg 88%
14:00 +13°C° 0.1 mm 3 mps 758 mmHg 88%
15:00 +14°C° 0.1 mm 2 mps 758 mmHg 87%
16:00 +13°C° 0.2 mm 3 mps 758 mmHg 89%
17:00 +13°C° 0.2 mm 3 mps 757 mmHg 91%
18:00 +12°C° 0.2 mm 3 mps 757 mmHg 93%
19:00 +12°C° 0.6 mm 4 mps 756 mmHg 95%
20:00 +12°C° 0.6 mm 4 mps 756 mmHg 96%
21:00 +12°C° 0.6 mm 4 mps 755 mmHg 98%
22:00 +12°C° 1.4 mm 5 mps 755 mmHg 97%
23:00 +11°C° 1.4 mm 6 mps 754 mmHg 97%

20 April, Tuesday

Time Temperature Precipitation Wind Pressure Humidity
00:00 +11°C° 1.4 mm 7 mps 753 mmHg 97%
01:00 +12°C° 0.2 mm 8 mps 752 mmHg 95%
02:00 +12°C° 0.2 mm 8 mps 751 mmHg 94%
03:00 +12°C° 0.2 mm 9 mps 749 mmHg 92%
04:00 +12°C° 0.1 mm 9 mps 749 mmHg 91%
05:00 +12°C° 0.1 mm 8 mps 749 mmHg 90%
06:00 +12°C° 0.1 mm 8 mps 749 mmHg 89%
07:00 +12°C° 0.9 mm 8 mps 749 mmHg 91%
08:00 +11°C° 0.9 mm 7 mps 749 mmHg 93%
09:00 +11°C° 0.9 mm 7 mps 749 mmHg 96%
10:00 +12°C° 0.7 mm 8 mps 750 mmHg 88%
11:00 +13°C° 0.7 mm 8 mps 751 mmHg 80%
12:00 +13°C° 0.7 mm 9 mps 752 mmHg 72%
13:00 +14°C° 0 mm 10 mps 752 mmHg 70%
14:00 +14°C° 0 mm 10 mps 752 mmHg 67%
15:00 +14°C° 0 mm 11 mps 752 mmHg 65%
16:00 +13°C° 0 mm 11 mps 752 mmHg 68%
17:00 +12°C° 0 mm 12 mps 753 mmHg 71%
18:00 +10°C° 0 mm 12 mps 753 mmHg 74%
19:00 +9°C° 0.1 mm 11 mps 753 mmHg 77%
20:00 +9°C° 0.1 mm 11 mps 754 mmHg 80%
21:00 +8°C° 0.1 mm 11 mps 754 mmHg 83%
22:00 +8°C° 0.2 mm 11 mps 754 mmHg 83%
23:00 +7°C° 0.2 mm 12 mps 755 mmHg 84%

21 April, Wednesday

Time Temperature Precipitation Wind Pressure Humidity
00:00 +7°C° 0.2 mm 12 mps 755 mmHg 84%
01:00 +7°C° 0.2 mm 12 mps 756 mmHg 85%
02:00 +7°C° 0.2 mm 11 mps 756 mmHg 87%
03:00 +7°C° 0.2 mm 11 mps 757 mmHg 88%
04:00 +7°C° 0 mm 10 mps 757 mmHg 87%
05:00 +7°C° 0 mm 9 mps 758 mmHg 86%
06:00 +7°C° 0 mm 9 mps 758 mmHg 86%
07:00 +8°C° 0 mm 9 mps 759 mmHg 83%
08:00 +8°C° 0 mm 9 mps 759 mmHg 80%
09:00 +10°C° 0 mm 9 mps 760 mmHg 77%
10:00 +11°C° 0 mm 8 mps 760 mmHg 73%
11:00 +11°C° 0 mm 8 mps 761 mmHg 69%
12:00 +12°C° 0 mm 7 mps 761 mmHg 65%
13:00 +12°C° 0 mm 7 mps 761 mmHg 63%
14:00 +12°C° 0 mm 7 mps 761 mmHg 61%
15:00 +14°C° 0 mm 7 mps 762 mmHg 59%
16:00 +13°C° 0 mm 6 mps 762 mmHg 62%
17:00 +13°C° 0 mm 5 mps 762 mmHg 64%
18:00 +12°C° 0 mm 4 mps 762 mmHg 67%
19:00 +11°C° 0 mm 4 mps 763 mmHg 72%
20:00 +11°C° 0 mm 3 mps 763 mmHg 77%
21:00 +10°C° 0 mm 2 mps 763 mmHg 82%
22:00 +9°C° 0 mm 2 mps 764 mmHg 84%
23:00 +9°C° 0 mm 2 mps 764 mmHg 86%
Show more